^^
Meteo Knjazevac Station Historical Data
Daily Summary for July 15, 2021 Units:  Metric    English   Both
Daily Weekly Monthly Yearly Custom
  High: Low: Average:
Temperature: 6.4 °C 6.1 °C 6.2 °C
Dew Point: 6.1 °C 5.1 °C 5.6 °C
Humidity: 98% 93% 96%
Wind Speed: 12.9km/h 8km/h 10.6km/h
Wind Gust: 33.8km/h - -
Wind- - NNW
Pressure: 1022.9 hPa 1022.2 hPa -
Precipitation: 0.25 mm    
Historical Graphs
 
 
Tabular Data for July 15, 2021
Time Temperature Dew Point Pressure Wind Wind Speed Wind Gust Humidity Rainfall Rate (Hourly) solar Conditions
00:00 6.1 °C 5.1 °C 1022.9 hPa North 11.3 km/h 19.3 km/h 93% 0 mm 0 W/m2
00:10 6.1 °C 5.2 °C 1022.9 hPa North 8 km/h 19.3 km/h 94% 0 mm 0 W/m2
00:20 6.1 °C 5.1 °C 1022.9 hPa North 8 km/h 19.3 km/h 93% 0 mm 0 W/m2
00:30 6.1 °C 5.2 °C 1022.9 hPa North 12.9 km/h 20.9 km/h 94% 0 mm 0 W/m2
00:40 6.2 °C 5.3 °C 1022.9 hPa North 9.7 km/h 19.3 km/h 94% 0 mm 0 W/m2
00:50 6.2 °C 5.2 °C 1022.9 hPa North 9.7 km/h 19.3 km/h 94% 0 mm 0 W/m2
01:00 6.2 °C 5.3 °C 1022.9 hPa North 8 km/h 22.5 km/h 94% 0 mm 0 W/m2
01:10 6.2 °C 5.4 °C 1022.9 hPa North 11.3 km/h 22.5 km/h 95% 0 mm 0 W/m2
01:20 6.2 °C 5.4 °C 1022.9 hPa North 11.3 km/h 20.9 km/h 95% 0 mm 0 W/m2
01:30 6.2 °C 5.4 °C 1022.9 hPa North 9.7 km/h 24.1 km/h 95% 0 mm 0 W/m2
01:40 6.2 °C 5.6 °C 1022.9 hPa North 11.3 km/h 24.1 km/h 96% 0 mm 0 W/m2
01:50 6.2 °C 5.6 °C 1022.6 hPa NNW 11.3 km/h 25.7 km/h 96% 0 mm 0 W/m2
02:00 6.2 °C 5.6 °C 1022.6 hPa North 11.3 km/h 24.1 km/h 96% 0 mm 0 W/m2
02:10 6.2 °C 5.9 °C 1022.6 hPa North 11.3 km/h 22.5 km/h 98% 0 mm 0 W/m2
02:20 6.2 °C 5.9 °C 1022.6 hPa North 11.3 km/h 33.8 km/h 98% 0 mm 0 W/m2
02:30 6.2 °C 5.9 °C 1022.6 hPa North 11.3 km/h 22.5 km/h 98% 0 mm 0 W/m2
02:40 6.2 °C 5.9 °C 1022.6 hPa North 9.7 km/h 20.9 km/h 98% 0 mm 0 W/m2
02:50 6.2 °C 5.9 °C 1022.2 hPa North 11.3 km/h 24.1 km/h 98% 0 mm 0 W/m2
03:00 6.3 °C 6 °C 1022.2 hPa North 9.7 km/h 24.1 km/h 98% 0 mm 0 W/m2
03:10 6.4 °C 6.1 °C 1022.2 hPa North 11.3 km/h 25.7 km/h 98% 0 mm 0 W/m2
03:20 6.3 °C 6 °C 1022.2 hPa North 12.9 km/h 20.9 km/h 98% 0.25 mm 0 W/m2
Knjazevac, Serbia
Compliments of Weather Underground - 2 mb